Regional Weather Roundup
Issued by NWS Green Bay, WI

Home | Current Version | Previous Version | Text Only | Print | Product List | Glossary On
Versions: 1 2 3 4 5 6 7 8 9 10 11 12 13 14 15 16 17 18 19 20 21 22 23 24 25 26 27 28 29 30 31 32 33 34 35 36 37 38 39 40 41 42 43 44 45 46 47 48 49 50
000
ASUS43 KGRB 020511
RWRGRB

NORTH-CENTRAL AND NORTHEAST WISCONSIN REGIONAL WEATHER ROUNDUP
NATIONAL WEATHER SERVICE GREEN BAY WI
1200 AM CDT WED SEP 02 2015

WIZ005-009-010>012-018-019-020600-
NORTH CENTRAL WISCONSIN

CITY           SKY/WX    TMP DP  RH WIND       PRES   REMARKS
IRONWOOD         N/A     68  66  94 CALM      29.94S VSB 1/2
MANITOWISH WTR FOG       62  62 100 CALM      29.99F VSB 1/4
ARBOR VITAE    PTCLDY    67  66  95 CALM      30.00S FOG
EAGLE RIVER    PTCLDY    65  65 100 CALM      30.00S FOG
LAND O LAKES     N/A     63  63  99 CALM      30.01S FOG
RHINELANDER    MOCLDY    68  66  93 CALM      30.01S FOG
PHILLIPS       CLOUDY    68  68 100 CALM      29.98S FOG
ANTIGO         PTCLDY    68  68  99 CALM      30.01S FOG
TOMAHAWK       FOG       67  66  96 CALM      30.00S VSB 1
MERRILL        FOG       69  69 100 CALM      29.99S VSB 1/4
$$

WIZ013-073-020600-
NORTHEAST WISCONSIN

CITY           SKY/WX    TMP DP  RH WIND       PRES   REMARKS
IRON MOUNTAIN  PTCLDY    68  66  93 CALM      29.97S FOG
MARINETTE      MOCLDY    73  66  78 W3        29.95S
OCONTO         MOCLDY    70  70 100 CALM      29.95S
$$

WIZ017-030-035>037-045-020600-
CENTRAL WISCONSIN

CITY           SKY/WX    TMP DP  RH WIND       PRES   REMARKS
MEDFORD        MOCLDY    69  69 100 S5        30.00R FOG
WAUSAU         FAIR      72  70  93 E5        29.97S FOG
MOSINEE        FAIR      70  70 100 CALM      30.00S FOG
MARSHFIELD     MOCLDY    73  69  87 S3        29.99R FOG
WISC RAPIDS    PTCLDY    74  70  87 CALM      30.00R
STEVENS POINT  PTCLDY    71  69  94 CALM      29.99S
WAUPACA        PTCLDY    73  72  99 CALM      29.98S
SHAWANO        PTCLDY    75  71  86 CALM      29.97S
CLINTONVILLE   PTCLDY    70  68  94 CALM      29.98S FOG
WAUTOMA        CLEAR     71  71 100 CALM      29.99S
$$

WIZ038-039-048-051-020600-
FOX VALLEY

CITY           SKY/WX    TMP DP  RH WIND       PRES   REMARKS
NWS GREEN BAY  MOCLDY    74  71  91 S3        29.97S
APPLETON       PTCLDY    73  70  88 SW7       29.97S
OSHKOSH        PTCLDY    73  69  87 S3        29.98S
FOND DU LAC    PTCLDY    74  71  91 SW5       29.99S
$$

WIZ022-050-052-020600-
EAST CENTRAL WISCONSIN

CITY           SKY/WX    TMP DP  RH WIND       PRES   REMARKS
EPHRAIM        FAIR      72  67  85 CALM      29.96S
STURGEON BAY   MOCLDY    72  68  88 SW6       29.99S
MANITOWOC      MOCLDY    63  61  93 MISG      29.99R
SHEBOYGAN      MOCLDY    71  68  90 SW5       29.99S FOG
$$

LMZ563-521-522-541>543-020600-
LAKESHORE

STATION/POSITION TIME  TEMP    WIND        PRES    VSBY  WAVE
                       AIR SEA DIR/SP/G                  HT/PER
                 (UTC) (F)     (DEG/KT/KT) (MB)    (MI)  (FT/S)
SHEBOYGAN LKSHOR 0500   69     210/  3/  3 1015.5S
KEWAUNEE LKSHORE 0400   54      CALM  /  2 1013.9R
ALGOMA MARINA    0414             CALM       N/A
NORTHPORT PIER   0400   71     170/  4/  7 1014.2S
N MID LAKE BUOY  0450   67 65  200/ 10/ 12 1014.4R         2/ 4
SISTER BAY LKSHO 0419   72     120/  5/  8   N/A
CHAMBERS ISLAND  0400   75     180/  3/  7 1014.2R
MENOMINEE LKSHOR 0400   69     180/  4/  5 1013.1R
$$


USA.gov is the U.S. government's official web portal to all federal, state and local government web resources and services.